ORBCOMM FM 17

Satellite information

Favourite Embed

Satellite Type and Status

PAYLOADIN ORBIT

Key statistics

Satellite ORBCOMM FM 17 at a glance.

Uptime

9776

Days in orbit

Revolutions

≈ 14.4

Per day

Orbit

LEO

Low Earth Orbit

Inclination

45.0

Latest

Satellite identification and parameters

Extended collection of information and parameters for ORBCOMM FM 17.

Object identification

Identified? True

Debris? False

Object name: ORBCOMM FM 17

International designator: 1998-046A

Object number (NORAD): 25413

Object ID (CCSDS): 25413

Country: ORBITAL TELECOMMUNICATIONS SATELLITE (GLOBALSTAR) (ORB)

Current information (Y/N): Y

RCS size: MEDIUM

Orbital parameters

Period: 100.347 minutes

Inclination: 44.994 deg

SMA: 7153.127 km

Apoapsis: 777.899 km

Periapsis: 772.085 km

RAAN: 90.113 deg

Eccentricy: 0.0004064

Argument of periapsis: 342.06 deg

Mean anomaly: 18.0103 deg

Mean motion: 14.35022993 rev/day

Mean motion (dot): 0.00001259 rev/day2

B* drag term: 0.00048703 1/REarth

Two-line elements (TLE)

Creation date: May 8, 2025, 3:01 a.m.

Reference frame: TEME

Reference center: EARTH

Epoch: May 7, 2025, 9:28 a.m. UTC

TLE line 0: 0 ORBCOMM FM 17

TLE line 1: 1 25413U 98046A 25127.39463375 .00001259 00000-0 48703-3 0 9991

TLE line 2: 2 25413 44.9940 90.1130 0004064 342.0600 18.0103 14.35022993397314

Live tracking on map

Real-time ground track for satellite ORBCOMM FM 17.

In-orbit conjunctions

There are no conjunctions computed for ORBCOMM FM 17, at the moment. Check back to stay up to date, as we update our databases every day.

Go to all conjunctions

Associated space launch

ORBCOMM FM 17 was lifted into orbit during the mission ‘Pegasus XL HAPS | Orbcomm-B1 - B8’, on board a Pegasus XL HAPS space rocket.

The launch took place on Aug. 2, 1998, 4:24 p.m. from Wallops Flight Facility.

For more information about the launch, click the button.

Launch to space Pegasus XL HAPS | Orbcomm-B1 - B8
Pegasus XL HAPS | Orbcomm-B1 - B8

Agency: N/A

Status: Launch Successful

Launch date: Aug. 2, 1998, 4:24 p.m. UTC

Rocket: Pegasus XL HAPS

Launch pad: Wallops Flight Facility

Location: Air launch to orbit

...

Latest news about this satellite

There are no fresh news available about this satellite. Check back as we update our databases every day.


Newsletter sign-up

Weekly statistics, charts and insights to help you stay on top of the space industry.